Regional Weather Roundup
Issued by NWS

Home | Current Version | Previous Version | Text Only | Print | Product List | Glossary On
Versions: 1 2 3 4 5 6 7 8 9 10 11 12 13 14 15 16 17 18 19 20 21 22 23 24 25 26 27 28 29 30 31 32 33 34 35 36 37 38 39 40 41 42 43 44 45 46 47 48 49 50
000
ASUS43 KLOT 271410
RWRIL

ILLINOIS REGIONAL WEATHER ROUNDUP
NATIONAL WEATHER SERVICE CHICAGO/ROMEOVILLE IL
800 AM CST SAT DEC 27 2014

NOTE: "FAIR" INDICATES FEW OR NO CLOUDS BELOW 12,000 FEET WITH NO
SIGNIFICANT WEATHER AND/OR OBSTRUCTIONS TO VISIBILITY.

* THESE STATIONS ARE NOT UNDER NWS QUALITY CONTROL. THEY ALSO MAY NOT
  REPORT WEATHER SUCH AS PRECIPITATION OR FOG.

ILZ001-002-007-009-015-016-024-271500-
NORTHWEST ILLINOIS

CITY           SKY/WX    TMP DP  RH WIND       PRES   REMARKS
MOLINE         MOCLDY    37  33  85 W22G30    30.01R WCI  26
STERLING*      CLOUDY    45  41  87 W24G31    29.94S
SAVANNA*       CLOUDY    41  38  87 W15G22    29.94R
$$

ILZ003-004-008-010-011-017-018-271500-
NORTH CENTRAL ILLINOIS

CITY           SKY/WX    TMP DP  RH WIND       PRES   REMARKS
ROCKFORD       CLOUDY    49  45  86 SW18      29.92S
FREEPORT*      CLOUDY    46  44  94 SW17      29.92R
ROCHELLE*      CLOUDY    47  46  95 S16G23    29.92F
DE KALB*       CLOUDY    45  44  97 S16       29.94R FOG
PERU*          CLOUDY    49  46  92 SW13      29.97S
$$

ILZ005-006-012>014-019>023-271500-
NORTHEAST ILLINOIS

CITY           SKY/WX    TMP DP  RH WIND       PRES   REMARKS
CHICAGO-OHARE  CLOUDY    46  44  93 SW16G24   29.95F
CHICAGO-MIDWAY CLOUDY    48  46  93 S14G22    29.97F
AURORA         CLOUDY    48  44  86 S13       29.95F FOG
LANSING*       CLOUDY    46  45  97 SW15G22   30.00S FOG
JOLIET*        CLOUDY    46  45  95 SW12      29.98F FOG
WAUKEGAN       CLOUDY    46  44  93 S20G26    29.91F FOG
DUPAGE AIRPORT CLOUDY    47  45  93 S12       29.94F FOG
KANKAKEE*      CLOUDY    46  46  98 S15       30.02F FOG
WHEELING       CLOUDY    47  44  90 S18G24    29.96F
MORRIS*        CLOUDY    47  47  99 SW14      29.97F FOG
ROMEOVILLE*    CLOUDY    46  46 100 SW17      29.96F FOG
NORTHERLY ISL    N/A     46  44  93 S13         N/A
$$

LMZ740>746-271500-
SOUTHERN LAKE MICHIGAN

STATION/POSITION SKY/WX   TEMP    WIND        PRES    VSBY  WAVE
                          AIR SEA DIR/SP/G                  HT/PER
                          (F)     (DEG/KT/KT) (MB)    (MI)  (FT/S)
WAUKEGAN HARBOR            46     210/ 19/ 24   N/A
HARRISON CRIB              45     200/ 26/ 29   N/A
BURNHAM HARBOR             47     200/ 13/ 17   N/A
CALUMET HARBOR             46     190/ 13/ 17 1014.0F
MICHIGAN CITY              45     170/ 15/ 22   N/A
$$

ILZ025>027-034>036-040-047-049-050-058-095>099-271500-
WEST-CENTRAL ILLINOIS

CITY           SKY/WX    TMP DP  RH WIND       PRES   REMARKS
QUINCY         CLOUDY    39  33  79 W12       30.11R WCI  32
GALESBURG*     CLOUDY    39  37  91 W20       30.03R WCI  29
MACOMB*        CLOUDY    41  39  91 W15G26    30.07R
JACKSONVILLE*  CLOUDY    50  48  92 W17       30.07R FOG
PITTSFIELD*    CLOUDY    44  39  82 W18G25    30.11R
$$

ILZ028>032-037-038-041>044-048-051>054-059>061-271500-
CENTRAL ILLINOIS

CITY           SKY/WX    TMP DP  RH WIND       PRES   REMARKS
PONTIAC        CLOUDY    47  47  97 S16       30.00F FOG
BLOOMINGTON    FOG       46  46 100 SW16      30.03R VSB 3/4
DECATUR        CLOUDY    47  45  93 S14       30.05F
PEORIA         LGT RAIN  49  45  86 SW12      30.00R FOG
LACON*         CLOUDY    48  45  90 SW12G17   29.98R
LINCOLN*       CLOUDY    48  46  94 S6        30.03S
SPRINGFIELD    CLOUDY    49  46  90 S15       30.06R
TAYLORVILLE    CLOUDY    45  43  93 S14       30.06R
$$

ILZ033-039-045-046-055>057-062-063-271500-
EAST-CENTRAL ILLINOIS

CITY           SKY/WX    TMP DP  RH WIND       PRES   REMARKS
CHAMPAIGN      CLOUDY    47  45  93 S15       30.05F FOG
DANVILLE*      DRIZZLE   45  44  97 S14G20    30.05F
RANTOUL*       CLOUDY    47  47  97 S12G17    30.03F FOG
MATTOON        CLOUDY    45  45 100 S8        30.09S
PARIS*         CLOUDY    46  45  98 S12       30.11S FOG
$$

ILZ079-100>102-271500-
SOUTHWEST ILLINOIS

CITY           SKY/WX    TMP DP  RH WIND       PRES   REMARKS
ALTON          MOCLDY    46  46 100 S9        30.09R
BELLEVILLE     CLOUDY    46  46 100 S6        30.10R
CAHOKIA*       CLOUDY    48  46  93 S3        30.10R
SPARTA*        CLOUDY    46  46  98 S8        30.12R
$$

ILZ064>066-069>071-074>076-080>082-084>086-088>090-092>094-271500-
SOUTH-CENTRAL ILLINOIS

CITY           SKY/WX    TMP DP  RH WIND       PRES   REMARKS
CARBONDALE     CLOUDY    48  46  93 S9        30.13S
CAIRO*         CLOUDY   N/A N/A N/A SE6       30.15S HAZE
EFFINGHAM*     CLOUDY    47  44  90 S6        30.12F
MARION         CLOUDY    48  46  93 S9        30.14F
MT. VERNON     CLOUDY    46  43  87 S6        30.13F
CENTRALIA*     CLOUDY    46  44  91 S9        30.10F
SALEM*         CLOUDY    49  46  92 S8        30.10F
METROPOLIS*    CLOUDY    47  47 100 SE5       30.16S FOG
$$

ILZ067-068-072-073-078-083-087-091-271500-
SOUTHEAST ILLINOIS

CITY           SKY/WX    TMP DP  RH WIND       PRES   REMARKS
LAWRENCEVILLE  CLOUDY    45  45 100 S9        30.16R FOG
FLORA*         CLOUDY    46  46  99 S7        30.12F FOG
FAIRFIELD*     CLOUDY    46  46  99 S5        30.13S
HARRISBURG*    CLOUDY    48  48 100 S6        30.16S FOG
ROBINSON*      CLOUDY    45  44  97 S8        30.15S FOG
CARMI*         CLOUDY    48  48 100 S6        30.15R
$$

ABBREVIATIONS USED IN REMARKS
   TC - TEMPERATURE IN CELSIUS
  WCI - WIND CHILL INDEX
   HX - HEAT INDEX
  VSB - VISIBILITY
$$



USA.gov is the U.S. government's official web portal to all federal, state and local government web resources and services.